Temperature
22 22 22 22 21 21 22 22 22 23 23 23 24 23 22 21 21 20 19 19 18 18 18 18 18 18 17 17 17 17 17 16 16 16 16 16 16 15 15 15 15 15 15 15
21 21 21 21 22 22 22 22 22 22 22 23 23 22 22 21 21 20 20 19 19 18 18 18 18 18 18 18 18 17 17 17 16 16 16 16 16 16 15 15 15 15 15 15
20 21 20 20 22 22 22 22 22 22 23 23 22 22 22 21 20 21 20 19 19 19 18 18 18 18 18 18 18 17 17 17 16 16 16 16 16 16 15 15 15 15 15 15
20 20 19 22 23 22 22 22 22 22 22 22 22 21 21 20 20 20 20 19 19 19 19 18 19 18 18 18 18 17 17 17 17 16 16 16 16 16 15 15 15 15 15 15
19 19 20 21 21 22 21 21 22 22 22 21 21 21 21 20 19 20 19 19 19 19 19 19 18 18 18 18 18 17 17 17 17 17 17 16 16 16 16 15 15 15 15 15
18 18 19 21 22 21 22 21 22 22 22 21 21 21 22 20 19 19 19 19 19 19 18 18 18 18 18 18 18 18 17 17 17 17 17 17 16 16 16 16 15 15 15 15
18 18 20 21 20 20 20 21 21 21 21 21 21 21 20 19 18 18 18 19 19 18 18 18 18 18 18 18 18 18 18 17 17 17 17 17 16 16 16 16 15 15 15 15
18 18 19 20 20 20 21 21 20 20 20 20 20 19 19 18 18 18 18 18 18 18 18 18 18 18 18 18 18 18 18 17 17 17 17 17 16 16 16 16 15 15 15 15
19 19 20 19 19 19 19 20 20 19 19 19 19 18 18 18 17 17 18 18 18 18 18 18 18 18 18 18 18 18 18 17 17 17 17 16 16 16 16 15 15 15 15 15
18 19 19 18 18 18 18 18 18 18 18 18 18 18 18 17 17 17 17 17 17 17 17 18 18 18 18 18 18 17 17 17 17 17 16 16 16 16 16 15 15 15 15 14
18 18 18 17 17 17 17 17 17 17 18 18 18 17 17 17 17 17 17 17 17 17 17 17 18 17 17 17 17 17 17 17 17 16 16 16 16 16 16 15 15 15 15 15
18 18 18 18 17 16 16 16 17 17 17 17 17 17 17 17 16 17 17 17 17 17 17 17 17 17 17 17 17 17 16 16 16 16 16 16 16 15 15 15 15 15 15 15
17 16 16 16 16 16 16 16 16 16 16 16 16 16 16 16 16 16 16 17 17 17 17 17 17 17 17 17 17 16 16 16 16 15 15 15 15 15 15 15 15 15 14 14
15 15 15 15 15 15 15 15 15 16 16 16 16 16 16 16 16 16 16 16 16 16 16 16 16 16 16 16 16 16 16 15 15 15 15 15 15 15 15 15 14 14 14 14
14 14 15 14 14 14 14 15 15 15 15 15 16 16 16 15 16 16 16 16 16 16 16 16 16 16 16 16 16 16 15 15 15 15 15 15 14 14 14 14 14 14 14 13
13 14 14 14 14 14 14 14 15 15 15 15 15 15 15 15 15 15 15 15 15 15 15 15 16 16 16 15 15 15 15 15 15 14 14 14 14 14 14 13 13 13 13 13
13 13 13 13 13 14 14 14 14 14 14 14 15 15 15 15 15 15 14 15 15 15 15 15 15 15 15 15 15 15 14 14 14 14 14 14 13 13 13 13 13 13 13 12
13 13 13 13 13 13 13 13 13 14 14 14 14 14 14 14 14 14 14 14 14 14 14 14 14 14 14 14 14 14 14 14 14 13 13 13 13 13 13 12 12 12 12 12
12 12 12 13 13 13 13 13 13 13 13 14 14 14 14 14 14 14 14 14 14 14 14 14 14 14 14 14 14 13 13 13 13 13 13 12 12 12 12 12 12 12 11 11
12 12 12 12 12 12 12 12 12 13 13 13 13 13 13 13 13 13 13 13 13 13 13 13 13 13 13 13 13 13 13 12 12 12 12 12 12 12 11 11 11 11 11 11
11 11 11 11 12 12 12 12 12 12 12 13 13 13 13 13 13 13 13 13 12 13 13 13 13 13 13 13 13 12 12 12 12 12 12 12 11 11 11 11 11 11 11 10
11 11 11 11 11 11 11 12 12 12 12 12 12 12 12 12 12 12 12 12 12 12 12 12 12 13 13 13 12 12 12 12 12 11 11 11 11 11 11 11 11 10 10 10
11 11 11 11 11 11 11 11 11 12 12 12 12 12 12 12 12 12 12 12 12 12 12 12 12 12 12 12 12 12 11 11 11 11 11 11 11 11 10 10 10 10 10 10
10 10 10 10 10 11 11 11 11 11 11 11 11 12 12 11 11 11 11 11 11 11 11 11 11 11 11 11 11 11 11 11 11 11 11 10 10 10 10 10 10 9 9 9
9 10 10 10 10 10 10 10 10 10 11 11 11 11 11 11 11 11 11 11 11 11 11 11 11 11 11 11 10 10 10 10 10 10 10 10 10 10 9 9 9 9 9 8
9 9 9 9 10 10 9 10 10 10 10 10 10 10 10 10 10 10 10 10 10 10 10 10 10 10 10 10 10 10 10 10 9 9 9 9 9 9 9 8 8 8 8 8
8 8 8 9 9 9 9 9 9 9 9 9 9 9 9 10 10 10 10 10 10 10 10 9 9 9 9 9 9 9 9 9 9 8 8 8 8 8 8 8 7 7 7 7
Wind_Speed
9 6 7 10 12 13 15 15 13 11 11 9 6 5 3 3 4 6 7 9 10 11 11 12 12 12 12 12 11 11 11 11 10 9 9 8 7 7 6 6 5 5 4 4
10 8 9 12 13 15 16 15 15 13 12 8 6 5 5 5 6 7 7 9 10 11 12 13 13 13 12 12 12 11 11 11 10 10 9 9 8 8 7 6 5 5 5 4
10 8 8 13 15 15 14 14 13 14 11 7 7 7 7 6 7 7 8 8 9 11 11 12 13 13 13 13 12 12 12 11 10 10 10 10 9 8 7 7 6 5 5 4
8 8 12 8 5 10 12 13 12 11 9 8 8 7 7 6 7 7 7 8 9 10 11 11 11 12 12 12 13 13 12 12 11 10 10 10 10 9 9 8 7 6 5 5
8 11 11 7 6 8 10 11 11 11 9 7 6 6 6 6 7 7 7 7 7 9 10 10 11 11 12 12 13 13 12 12 12 12 11 11 11 11 9 8 8 7 6 6
10 11 10 6 5 6 8 10 8 9 9 7 6 7 6 4 5 5 5 5 5 6 8 9 9 11 12 12 13 13 13 12 12 12 12 12 12 11 9 8 8 7 6 6
14 12 9 4 4 6 8 4 2 6 7 8 8 6 3 2 3 3 4 4 5 6 7 8 9 10 12 12 12 12 11 11 11 11 12 11 10 9 9 8 8 7 7 6
13 12 9 4 6 7 4 1 1 3 5 6 6 4 2 2 3 3 3 4 5 6 6 6 8 9 10 11 10 9 10 11 11 11 10 9 9 9 9 9 8 8 7 7
9 8 2 6 6 5 3 4 3 2 3 5 5 5 4 3 3 3 4 5 5 6 6 6 7 8 9 8 8 9 10 10 10 11 10 10 10 10 9 9 8 8 7 7
8 7 6 6 5 4 4 5 4 3 3 5 5 4 4 3 3 3 4 4 5 6 6 5 6 6 6 6 8 10 10 10 9 10 10 10 8 9 8 8 8 8 8 7
10 7 6 7 5 4 4 5 3 3 4 4 4 4 4 3 3 3 3 4 4 5 5 5 5 5 5 6 8 9 9 9 9 9 9 8 7 6 7 7 7 7 7 7
9 7 6 7 5 5 4 4 4 4 4 4 4 4 4 3 3 4 4 5 5 5 5 5 5 5 5 6 7 9 8 8 7 7 7 7 7 5 3 2 4 4 3 4
8 7 6 5 4 5 4 4 4 4 4 3 3 3 3 3 4 4 5 5 5 5 4 4 5 4 5 6 7 8 8 7 7 7 7 7 7 7 6 4 4 4 4 4
6 6 6 5 4 4 4 4 4 3 3 3 3 3 3 4 4 5 5 5 5 5 4 5 4 4 4 5 6 7 7 7 6 6 6 6 6 6 6 6 5 3 3 5
7 7 6 5 4 4 3 3 3 3 3 3 3 4 4 5 5 5 5 5 5 5 5 5 5 4 4 5 6 6 6 5 5 6 6 6 6 5 5 5 5 4 4 4
6 5 5 6 5 5 5 5 5 4 3 3 3 4 4 4 4 4 4 5 6 6 5 5 5 4 4 5 6 5 5 7 6 6 6 6 6 6 5 5 5 4 4 4
7 7 7 6 6 6 6 5 5 4 3 4 4 4 4 5 5 4 4 4 4 4 4 5 5 5 5 6 6 5 5 7 8 6 5 6 6 5 5 5 5 4 4 4
9 9 9 8 6 5 5 4 4 4 4 3 4 5 6 6 6 5 5 5 5 4 3 4 4 5 5 6 5 5 5 6 6 6 5 5 5 5 5 5 5 5 4 5
7 8 8 7 7 6 5 4 4 4 4 4 5 5 5 5 5 5 5 5 5 4 3 3 5 5 6 6 6 5 6 6 6 6 6 6 6 5 5 5 5 4 4 4
5 5 6 6 6 6 5 4 4 4 4 5 5 5 5 5 5 6 5 4 2 2 3 4 4 5 5 6 6 6 6 7 7 6 6 6 5 5 5 5 5 4 4 4
4 4 5 6 5 5 5 5 4 4 4 5 6 6 6 5 5 5 5 4 3 3 4 4 4 4 5 6 7 6 6 6 6 6 6 6 5 5 5 5 4 4 4 3
2 3 3 4 5 4 4 4 4 5 5 5 6 6 6 6 5 5 4 3 3 3 3 3 3 4 5 6 6 6 6 6 6 6 6 6 5 5 5 5 4 4 3 3
1 2 2 3 4 4 4 4 4 5 5 6 6 6 6 5 4 5 4 3 3 4 4 4 5 6 6 5 6 6 6 6 6 6 5 5 5 5 4 4 4 3 3 3
1 1 2 3 4 5 5 4 4 4 4 5 5 5 5 5 4 3 4 5 5 5 4 6 8 7 6 5 5 5 5 5 5 5 5 5 4 4 4 4 4 3 3 3
2 2 3 4 4 3 4 4 5 5 5 4 5 5 4 4 4 4 5 6 6 6 6 7 8 7 6 5 5 5 4 4 4 5 4 4 4 4 3 3 3 3 2 2
2 2 2 2 2 2 3 4 4 4 5 5 4 4 4 4 5 5 5 6 7 7 6 5 6 5 5 5 5 5 5 5 5 4 4 4 4 3 3 2 3 2 2 2
2 2 2 2 2 2 3 4 4 5 5 5 5 5 5 5 5 5 6 6 6 6 6 5 5 5 5 5 5 5 5 4 4 4 4 4 4 3 3 2 2 2 1 1
Wind_Direction
244 248 232 234 228 223 230 239 249 254 259 267 268 264 243 214 193 183 180 183 187 189 189 188 189 191 189 189 188 189 190 192 193 192 189 187 181 180 182 179 177 172 170 170
235 234 238 244 239 232 234 240 246 256 259 260 266 254 235 219 206 201 193 192 191 193 192 191 189 191 189 189 188 189 190 193 190 190 185 185 185 183 182 180 179 174 181 174
236 229 244 245 236 231 231 233 239 248 254 255 253 246 239 230 219 217 205 197 194 195 196 194 193 192 191 190 187 189 193 193 189 189 185 186 183 183 183 183 179 180 182 176
232 224 236 243 222 225 231 235 235 245 256 254 255 251 245 241 229 225 212 203 200 198 197 196 193 192 189 186 188 191 194 192 189 188 188 185 183 186 188 186 182 185 185 186
223 230 246 242 221 215 225 236 230 237 245 246 248 244 239 237 232 228 217 207 202 200 196 192 190 187 186 186 188 192 195 194 191 188 188 188 190 192 190 187 186 188 187 191
222 229 237 229 197 212 228 241 229 230 234 227 215 229 231 225 216 212 209 202 193 187 187 185 184 183 187 188 189 194 195 195 193 191 191 192 193 193 188 187 189 188 189 196
224 232 242 228 171 180 216 237 211 221 227 218 220 234 227 183 184 189 185 179 172 171 175 178 178 182 189 191 195 195 192 191 190 191 193 192 190 188 186 186 187 194 197 199
218 226 231 165 174 201 239 307 244 230 231 226 225 223 186 159 163 164 156 155 160 162 164 167 173 182 191 196 194 186 185 188 188 188 187 185 183 186 187 184 185 195 201 202
216 225 218 175 201 226 276 276 274 252 234 216 213 209 186 168 160 161 157 155 159 159 156 161 174 185 193 193 183 178 180 184 186 185 184 183 183 184 186 188 192 198 201 204
221 225 225 221 235 246 257 273 280 253 220 201 203 196 186 171 161 155 155 153 157 157 157 163 173 184 190 182 179 178 180 182 182 183 182 183 184 188 189 191 195 199 200 202
229 227 227 229 239 244 260 269 266 234 215 205 196 191 188 180 167 161 157 155 160 162 161 167 172 177 177 174 177 179 179 180 180 179 177 178 180 185 191 194 197 198 202 197
230 219 224 238 245 252 250 251 242 220 215 208 199 193 187 180 176 172 165 161 162 163 162 162 165 169 168 171 175 175 174 175 176 174 173 172 168 161 122 151 142 164 168 182
246 242 246 249 250 247 246 252 249 230 212 201 198 193 184 178 178 175 169 165 167 171 169 162 161 159 160 165 169 171 171 171 172 172 170 172 173 173 167 141 109 127 153 160
233 231 234 231 236 246 255 259 252 239 220 206 192 183 173 170 174 175 174 168 165 169 170 162 157 158 157 160 163 165 164 161 163 166 167 170 173 174 173 167 162 162 162 159
229 232 233 235 238 239 239 233 220 216 210 198 182 180 178 176 174 171 164 159 157 162 167 162 158 158 155 158 159 158 156 158 160 160 160 162 164 164 164 163 162 159 150 143
230 229 216 215 222 224 220 218 212 212 209 199 183 176 170 166 156 149 149 157 156 161 167 165 163 158 156 158 158 155 149 138 144 150 151 152 153 155 154 155 158 158 157 151
218 221 217 218 221 222 221 219 216 212 202 194 180 162 152 148 143 140 142 148 147 151 162 163 160 157 157 158 158 157 151 144 142 148 148 147 146 149 151 151 153 155 152 139
225 226 226 226 224 223 221 217 211 200 192 183 173 166 163 162 156 149 145 139 132 131 138 150 152 152 153 154 155 155 154 150 152 150 145 143 145 150 151 150 151 151 145 135
228 227 227 226 223 223 218 208 202 198 186 176 171 168 162 158 152 149 146 145 144 141 134 127 134 147 148 148 149 154 153 153 150 148 148 143 146 149 150 151 151 153 149 143
224 223 220 222 216 210 208 200 189 189 182 170 162 157 153 149 146 144 142 139 143 138 137 136 147 146 145 147 151 154 154 156 153 149 150 152 154 155 154 153 154 153 153 154
210 213 210 206 207 207 198 188 180 176 171 171 166 159 150 145 146 146 144 135 121 114 126 133 142 141 141 142 151 153 154 153 152 150 151 153 153 153 153 152 153 154 155 155
189 184 182 179 183 192 193 182 170 164 164 164 158 151 146 145 144 138 132 130 130 124 130 132 129 122 132 140 150 151 151 150 150 148 148 151 154 156 156 153 153 155 157 161
162 155 158 168 173 174 173 169 167 165 163 162 159 157 154 149 149 144 135 123 130 125 121 118 112 118 131 145 145 146 146 146 147 148 148 151 154 156 156 155 154 157 161 165
153 144 150 154 153 156 163 165 162 157 152 148 148 149 146 140 134 123 117 121 117 119 115 111 113 118 129 136 137 141 143 144 145 145 146 148 150 152 155 153 151 153 162 169
158 152 156 155 152 154 157 153 144 141 138 136 135 134 134 132 131 128 124 122 118 116 116 116 113 114 120 118 122 127 133 137 138 143 146 146 145 147 149 147 147 150 156 161
171 165 164 161 149 153 156 154 152 151 146 140 135 129 122 116 118 121 120 119 114 112 112 113 113 112 111 112 112 113 116 121 124 126 127 126 128 128 129 133 137 142 145 148
150 146 143 136 137 149 157 156 155 154 149 145 139 133 128 124 122 122 120 117 113 110 107 105 103 102 102 104 104 104 105 107 108 110 111 111 111 115 120 125 124 121 119 124
Height
1501 1502 1503 1505 1507 1508 1509 1506 1508 1505 1505 1502 1502 1504 1506 1508 1509 1511 1512 1514 1516 1519 1521 1525 1528 1531 1535 1537 1540 1543 1546 1549 1551 1554 1556 1558 1560 1561 1562 1564 1565 1566 1567 1567
1503 1502 1502 1503 1501 1502 1503 1502 1502 1503 1502 1500 1501 1503 1504 1506 1507 1508 1510 1511 1513 1516 1519 1522 1525 1528 1531 1534 1537 1540 1543 1546 1549 1551 1554 1556 1558 1559 1561 1563 1564 1565 1565 1566
1503 1501 1503 1503 1495 1496 1497 1497 1498 1500 1498 1498 1500 1501 1502 1503 1504 1505 1507 1508 1510 1513 1515 1518 1521 1525 1528 1531 1534 1537 1540 1543 1546 1548 1551 1553 1555 1557 1559 1561 1562 1563 1564 1565
1502 1504 1511 1491 1486 1489 1492 1493 1494 1494 1495 1496 1498 1499 1500 1501 1502 1503 1504 1505 1507 1509 1512 1515 1519 1522 1525 1528 1531 1534 1537 1540 1543 1545 1548 1551 1553 1555 1557 1559 1561 1562 1563 1564
1502 1503 1496 1489 1487 1488 1490 1490 1489 1491 1493 1494 1496 1496 1497 1498 1498 1500 1501 1503 1504 1507 1509 1512 1516 1519 1522 1525 1528 1531 1534 1536 1539 1542 1545 1548 1550 1553 1555 1557 1559 1560 1561 1563
1499 1502 1499 1486 1483 1486 1488 1489 1485 1487 1489 1491 1493 1493 1492 1494 1495 1497 1498 1500 1502 1504 1507 1509 1512 1515 1519 1521 1524 1527 1530 1533 1536 1539 1541 1544 1547 1550 1552 1554 1556 1558 1559 1561
1495 1495 1486 1481 1484 1486 1492 1486 1483 1484 1486 1488 1489 1489 1491 1492 1493 1494 1496 1497 1499 1501 1504 1506 1509 1512 1515 1518 1521 1524 1527 1530 1532 1535 1538 1541 1544 1546 1549 1551 1553 1555 1557 1558
1490 1493 1488 1482 1483 1484 1482 1481 1483 1484 1485 1486 1487 1488 1489 1490 1491 1492 1493 1495 1497 1499 1501 1504 1506 1509 1512 1515 1518 1521 1523 1526 1529 1532 1535 1537 1540 1543 1545 1548 1550 1552 1554 1556
1481 1481 1478 1480 1481 1482 1482 1482 1482 1483 1484 1485 1486 1487 1488 1489 1490 1490 1491 1493 1495 1497 1499 1501 1504 1507 1509 1512 1514 1517 1520 1522 1525 1528 1531 1534 1536 1539 1542 1544 1546 1548 1550 1552
1478 1477 1478 1479 1480 1481 1482 1482 1482 1482 1483 1484 1484 1485 1486 1487 1488 1489 1490 1492 1494 1496 1497 1500 1502 1505 1507 1509 1511 1514 1516 1519 1522 1525 1527 1530 1533 1535 1537 1540 1542 1544 1546 1548
1474 1475 1477 1478 1478 1479 1480 1480 1480 1481 1482 1483 1483 1484 1485 1486 1486 1487 1489 1491 1492 1494 1496 1498 1500 1502 1504 1506 1508 1511 1513 1516 1519 1521 1524 1526 1529 1531 1533 1535 1538 1540 1542 1544
1470 1472 1474 1475 1476 1477 1477 1478 1478 1479 1480 1481 1482 1482 1483 1484 1485 1486 1487 1489 1491 1493 1494 1496 1498 1500 1502 1503 1506 1508 1510 1513 1515 1518 1520 1523 1525 1527 1530 1532 1534 1536 1538 1540
1469 1471 1472 1473 1474 1475 1475 1475 1476 1477 1478 1478 1480 1481 1481 1482 1483 1484 1486 1487 1489 1491 1493 1495 1497 1498 1500 1501 1503 1505 1507 1510 1512 1515 1517 1519 1522 1524 1526 1528 1530 1532 1534 1536
1467 1469 1469 1470 1471 1472 1472 1473 1474 1475 1476 1477 1477 1478 1479 1480 1481 1483 1484 1485 1487 1489 1491 1493 1495 1496 1498 1499 1501 1503 1505 1507 1510 1512 1514 1516 1519 1521 1523 1525 1527 1529 1531 1533
1465 1466 1467 1468 1469 1469 1470 1471 1471 1472 1473 1474 1475 1476 1477 1478 1479 1481 1482 1484 1485 1487 1489 1491 1492 1494 1496 1498 1499 1501 1503 1505 1508 1510 1512 1514 1517 1519 1521 1523 1524 1526 1528 1529
1461 1462 1463 1465 1466 1467 1467 1468 1469 1470 1471 1472 1473 1474 1475 1476 1477 1479 1480 1482 1483 1485 1487 1489 1491 1493 1494 1496 1498 1500 1501 1503 1506 1508 1510 1512 1514 1516 1518 1520 1522 1524 1525 1527
1458 1459 1460 1462 1463 1464 1465 1465 1466 1467 1468 1470 1471 1472 1473 1474 1476 1477 1479 1480 1482 1484 1485 1487 1489 1491 1492 1494 1496 1497 1499 1501 1504 1506 1508 1510 1512 1514 1516 1518 1520 1521 1523 1524
1454 1455 1457 1458 1459 1461 1462 1463 1464 1465 1466 1467 1469 1470 1471 1472 1474 1475 1477 1479 1480 1482 1484 1486 1487 1489 1490 1492 1494 1496 1497 1500 1502 1504 1506 1508 1510 1512 1514 1516 1518 1519 1521 1522
1450 1452 1453 1455 1456 1458 1459 1460 1461 1462 1464 1465 1467 1468 1469 1471 1472 1474 1476 1478 1479 1481 1482 1484 1486 1487 1489 1491 1492 1494 1496 1498 1500 1502 1505 1506 1509 1511 1512 1514 1516 1517 1519 1520
1447 1448 1450 1451 1453 1454 1455 1457 1459 1460 1462 1463 1464 1466 1468 1469 1471 1473 1474 1476 1478 1479 1481 1483 1484 1486 1488 1489 1491 1493 1494 1496 1498 1500 1503 1505 1507 1508 1510 1512 1513 1515 1516 1517
1444 1445 1446 1448 1449 1451 1453 1454 1456 1457 1459 1461 1463 1464 1466 1468 1469 1471 1473 1475 1477 1478 1480 1481 1483 1485 1486 1488 1490 1491 1493 1495 1497 1498 1501 1503 1504 1506 1508 1509 1511 1512 1513 1515
1441 1442 1444 1445 1447 1448 1450 1452 1454 1456 1458 1459 1461 1463 1465 1466 1468 1470 1472 1473 1475 1477 1478 1480 1482 1483 1485 1487 1488 1490 1492 1493 1495 1497 1498 1500 1502 1504 1505 1507 1508 1509 1511 1512
1439 1440 1442 1443 1445 1446 1448 1450 1452 1454 1456 1457 1459 1461 1463 1465 1467 1468 1470 1472 1474 1476 1477 1478 1480 1482 1484 1485 1487 1488 1490 1492 1493 1495 1496 1498 1500 1501 1503 1504 1505 1506 1507 1508
1438 1439 1440 1442 1443 1445 1447 1449 1451 1453 1454 1456 1458 1460 1462 1464 1466 1468 1469 1471 1473 1474 1476 1477 1479 1481 1482 1484 1486 1487 1489 1490 1492 1493 1494 1496 1497 1499 1500 1501 1502 1503 1504 1505
1436 1437 1439 1440 1442 1443 1445 1446 1448 1451 1453 1454 1457 1459 1462 1463 1465 1466 1468 1470 1472 1474 1475 1477 1478 1480 1481 1483 1484 1486 1487 1489 1490 1491 1492 1494 1495 1497 1498 1499 1499 1500 1501 1502
1434 1436 1437 1439 1440 1441 1443 1445 1447 1449 1451 1453 1455 1458 1460 1462 1464 1466 1468 1469 1471 1473 1474 1476 1477 1479 1480 1482 1483 1485 1486 1488 1489 1490 1491 1493 1494 1495 1496 1497 1497 1498 1498 1499
1433 1435 1436 1437 1439 1440 1442 1444 1445 1447 1450 1452 1454 1456 1459 1461 1463 1465 1467 1468 1470 1472 1474 1475 1477 1478 1480 1481 1483 1484 1485 1487 1488 1489 1490 1491 1492 1493 1494 1495 1495 1496 1496 1496